Погода в Пялице

Погода в Пялице : погода сейчас, прогноз погоды и архив. Всё, что Вы хотите узнать о погоде в Пялице!

Хотите узнать прогноз погоды в Пялице? Тогда Вам сюда: Погода в Пялице

Поиск расширенной информации на нашем сайте:

Другие новости

Новости СМИ2

Главная страница сайта

Новости сайта

03.07.2017

Напоминаем, что на нашем специализированном сайте Метеоцентр.Азия вы можете получить высокодетализированные автоматические прогнозы погоды по пунктам России, СНГ и мира в авиационном формате (включающие направление и скорость ветра, видимость, явления погоды, количество и форму облачности, нижнюю и верхнюю границу облачности).

Рекомендуем: Мастера ушу - обои спорт.

Погода в Пялице - сегодня

Время (UTC), дата Ветер
(°,м/с) 
Видим.   Явления Облачность Т
(°С)
Тd
(°С)
f(%) Тe
(°С)
Pmin
(гПа)
dP
(гПа)
Po
(мм)
O2
(г/м3)
Тmin Tmax R s Состояние
почвы
21 13.09.18 010 (С) 3-4  н/о    н/о 
+10.3 +8.6 89 +10  998.4  3.7  748  289           
21 14.09.18 260 (З) 4-4  н/о    н/о 
+8.2 +8 99 +7  1009.1  0.1  756  294           
00 15.09.18 тихо ()   20000 м    3/0 верхняя 
[Ci fib]
+3.9 +3.8 99 +4  1009.3  0.1  756  300           
09 15.09.18 230 (ЮЗ) 5-6  20000 м    9/9 600 м кучево-дожд. 
[Cb cap]
+11.1 +10.1 94 +11  1010.3  0.9  757  291           
21 15.09.18 150 (ЮВ) 3-5  н/о    н/о 
+9.9 +9.2 95 +9  1011.3  -0.7  758  293           
03 16.09.18 180 (Ю) 8-9{11}  4000 м  слаб. ливневой дождь  10/10 600 м кучево-дожд. 
[Cb cap]
+10.8 +10.2 96 +10  1008.2  -1.3  755  291  +5.5    0.0     
21 16.09.18 330 (СЗ) 1-2  н/о    н/о 
+7.7 +7.6 99 +9  1002.8  -1.1  751  293           
21 17.09.18 260 (З) 5-6  н/о    н/о 
+7.3 +5.5 88 +6  998  -0.4  748  293           
21 18.09.18 310 (СЗ) 3-4  н/о    н/о 
+4.7 +3.5 92 +4  1001  0.4  750  297           
09 19.09.18 270 (З) 4-6  20000 м    8/8 600 м 
[Sc]
+10.4 +3.8 64 +10  1003.6  0.5  752  291           
21 19.09.18 360 (С) 2-2  н/о    н/о 
+1.8 +1.2 96 +1  1005.3  0.1  753  301           
09 20.09.18 100 (В) 5-7  20000 м    8/6 600 м верхняя 
[Sc|Ci fib]
+10.1 +6.9 80 +9  1004.7  -0.9  753  291           
18 20.09.18 180 (Ю) 11-13{15}  10 км  ливневой дождь  10/10 600 м кучево-дожд. 
[Cb cap]
+10.9 +10.5 97 +10  999.6  -2.6  749  288    +11.2  0.0     
21 20.09.18 190 (Ю) 12-15{16}  н/о    н/о 
+11.6 +11.2 97 +12  996.5  -3.1  747  286           
03 21.09.18 250 (З) 8-10{12}  20000 м    4/4 600 м 
[Sc]
+10.3 +8 86 +8  995.6  -0.1  746  288  +10.3    0.0     
21 21.09.18 250 (З) 4-5  н/о    н/о 
+9.3 +7.6 89 +8  1002.6  0.2  751  291           
03 22.09.18 210 (ЮЗ) 7-9  20000 м  {ливн. осадки}  10/10 600 м кучево-дожд. 
[Cb cap]
+10.4 +9.7 95 +10  1001.5  -1.5  750  289  +8.6    0.0     
12 22.09.18 200 (Ю) 12-14{14}  20000 м    8/3 600 м верхняя 
[Sc|Ci fib]
+14.5 +12.1 85 +17  996.4  -2.4  747  283           
21 22.09.18 240 (ЮЗ) 8-10{16}  н/о    н/о 
+11.9 +9.8 87 +11  995  1.1  746  286           
03 23.09.18 210 (ЮЗ) 9-11{11}  20000 м    4/1 600 м средняя, верхняя 
[Sc|Ac trans|Ci fib]
+10.8 +9.2 90 +9  995.9  -0.1  746  288  +10.2         
21 23.09.18 210 (ЮЗ) 8-10{10}  н/о    н/о 
+10.4 +9 91 +8  992.7  0.3  744  287           
03 24.09.18 220 (ЮЗ) 9-12{13}  20000 м    9/8 600 м кучево-дожд., верхняя 
[Cb cap|Ci fib]
+9.7 +7.8 88 +7  993.5  0.2  744  288  +9.7         
21 24.09.18 330 (СЗ) 2-2  н/о    н/о 
+1.8 +1.1 95 +1  1000.2  749  300           
03 25.09.18 360 (С) 2-2  20000 м    4/4 600 м 
[Sc]
-0.1 -0.3 99 -1  1001.6  0.6  750  302  -0.5         
09 25.09.18 150 (ЮВ) 2-3  20000 м    8/8 300 м кучево-дожд. 
[Cb cap]
+10.5 +5.9 73 +11  1003.2  0.6  752  291           
Время (UTC), дата Ветер
(°,м/с) 
Видим.   Явления Облачность Т
(°С)
Тd
(°С)
f(%) Тe
(°С)
Pmin
(гПа)
dP
(гПа)
Po
(мм)
O2
(г/м3)
Тmin Tmax R s Состояние
почвы

Для получения пояснительной информации подведите курсор к названию столбца.

ПОГОДА в Пялице - архив

Всё, что Вы хотите узнать о погоде в Пялице - удобно и подробно!

Выберите нужную дату (начиная с 1 января 2015* года) и нажмите кнопку "Найти".
Будут отображены архивные сводки погоды по пункту Пялица, начиная с указанной даты.


Отображать данные в формате CSV (для использования в таблицах Excel)


Внимание! Наш архив погоды предназначен исключительно для личного некоммерческого использования в познавательных целях. Если Вам необходимы официальные справки о состоянии погоды (для производственных, юридических, коммерческих и т.п. целей), обращайтесь в органы Росгидромета.

*Примечание: данная дата относится к архиву по метеостанциям СССР (Россия, СНГ, Балтия).
Архив по метеостанциям Зарубежной Европы и Азии (кроме Китая) хранится 10 дней, по другим регионам земного шара (Китай, Африка, Америка, Австралия, Океания) - 1 день.

Пялица - район местоположения метеостанции


Название, широта, долгота, высота метеостанции:
Пялица 66.2°ш. 39.5°д. 9 м над ур. моря [Российская Федерация]

Дополнительная информация

В oтличие oт бoльшинства пoгoдных сайтoв мы публикуем пoдрoбную метеoинфoрмацию в детальнoм прoфессиoнальнoм фoрмате.

Характеристики температуры и влажнoсти вoздуха измеряются на высoте 2 м в тени вдали oт зданий и деревьев.
Скoрoсть ветра измеряется на высoте 10 м (на урoвне рoста челoвека скoрoсть ветра ниже в 1.5-2 раза). Если метеoстанция нахoдится в гoрoде или в лесу, тo скoрoсть ветра занижена на 2-4 м/с пo сравнению с oткрытым местoм. Скoрoсть ветра над акватoриями крупных рек и oзёр, а также на вершинах хoлмoв на 2-5 м/с выше, чем в oбычных услoвиях.
Атмoсфернoе давление в разных тoчках местнoсти мoжет значительнo oтличаться oт давления на метеoстанции, в зависимoсти oт услoвий рельефа (при пoдъёме на 10 м давление пoнижается примернo на 1 мм рт.ст.).